User: anonymous   Login
Location: Unspecified
(0.0000°N, 0.0000°E)
Time: 06:39:10
(UTC+00:00)
Language:

CP3 - Orbit

View from above orbital plane
View from above orbital plane
View from above satellite
View from above satellite

Ground track
Ground track

The orbit data is extracted from the following two-line orbital elements,

1 31129U 07012N   19081.83871748 +.00000157 +00000-0 +43581-4 0  9999
2 31129 098.1554 024.9168 0095379 356.8583 003.2005 14.56775275633170
Epoch (UTC): 22 March 2019 20:07:45
Eccentricity: 0.0095379
inclination: 98.1554°
perigee height: 636 km
apogee height: 771 km
right ascension of ascending node: 24.9168°
argument of perigee: 356.8583°
revolutions per day: 14.56775275
mean anomaly at epoch: 3.2005°
orbit number at epoch: 63317

The dashed part of the orbit path shows where the satellite is in the earth's shadow,  

DLR